Location: Staunton
(38.1490°N, 79.0720°W)
Time: 13:39:15
(UTC-04:00)

ISS - Pass Details

Date: 17 July 2019
Orbit: 409 x 418 km, 51.6° (Epoch: 20 July)

Event Time Altitude Azimuth Distance (km) Brightness Sun altitude
Rises 04:07:57 0° 316° (NW) 2,342 0.1 -19.1°
Reaches altitude 10° 04:10:15 10° 330° (NNW) 1,477 -0.8 -18.8°
Maximum altitude 04:13:08 27° 30° (NNE) 827 -1.5 -18.4°
Drops below altitude 10° 04:16:00 10° 90° (E) 1,469 -0.4 -18.0°
Sets 04:18:17 0° 103° (ESE) 2,326 0.4 -17.7°
